Location: Unspecified
(49.0500°N, 0.0000°E)
Time: 04:19:40
(UTC+00:00)

OTV 5 (USA 277) - Pass Details

Date: 19 June 2019
Orbit: 305 x 329 km, 54.5° (Epoch: 20 August)

Event Time Altitude Azimuth Distance (km) Brightness Sun altitude
Exits shadow 23:01:25 57° 119° (ESE) 387 ? -16.3°
Drops below altitude 10° 23:03:56 10° 66° (ENE) 1,250 ? -16.4°
Enters shadow 00:10:21 -47° 252° (WSW) 9,735 ? -17.5°
